Overview Statistics Trail Chart Weather Telemetry Raw packets
 

This is the latest recevied weather packets stored in our database for station/object K9MWD. If no packets are shown the sender has not sent any weather packets the latest 10 day(s).

<< 80 81 82 83 84 85 86 >>
Time Temp. Humidity Pressure Rain* Wind** Luminosity Snow
1788051512 35° C 38% 1013.9 hPa 0 mm - 2 W/m² -
1788051210 35° C 38% 1013.9 hPa 0 mm - 5 W/m² -
1788050910 35.56° C 38% 1013.8 hPa 0 mm - 8 W/m² -
1788050605 35.56° C 38% 1013.9 hPa 0 mm - 11 W/m² -
1788050305 35.56° C 38% 1013.9 hPa 0 mm - 15 W/m² -
1788050005 36.11° C 37% 1013.8 hPa 0 mm - 20 W/m² -
1788049702 36.11° C 37% 1013.9 hPa 0 mm - 26 W/m² -
1788049398 36.11° C 37% 1013.7 hPa 0 mm - 31 W/m² -
1788049093 36.67° C 36% 1013.7 hPa 0 mm - 36 W/m² -
1788048789 36.67° C 36% 1013.7 hPa 0 mm - 42 W/m² -
1788048488 36.67° C 35% 1013.9 hPa 0 mm - 50 W/m² -
1788048186 37.22° C 35% 1013.9 hPa 0 mm - 50 W/m² -
1788047883 37.22° C 34% 1013.7 hPa 0 mm - 57 W/m² -
1788047578 37.22° C 34% 1014 hPa 0 mm - 78 W/m² -
1788047278 37.22° C 35% 1013.8 hPa 0 mm - 89 W/m² -
1788046973 37.22° C 35% 1013.9 hPa 0 mm - 96 W/m² -
1788046672 37.22° C 34% 1013.7 hPa 0 mm - 93 W/m² -
1788046367 37.22° C 34% 1013.7 hPa 0 mm - 91 W/m² -
1788046064 37.78° C 34% 1013.7 hPa 0 mm - 84 W/m² -
1788045760 37.22° C 34% 1013.8 hPa 0 mm - 82 W/m² -
1788045455 37.78° C 33% 1013.9 hPa 0 mm - 100 W/m² -
1788045151 37.78° C 34% 1013.8 hPa 0 mm - 177 W/m² -
1788044851 38.33° C 32% 1013.9 hPa 0 mm - 202 W/m² -
1788044545 38.33° C 33% 1013.7 hPa 0 mm - 215 W/m² -
1788044244 38.89° C 32% 1013.6 hPa 0 mm - 224 W/m² -

* Rain latest hour (hover to see other rain measurements)
** Current wind speed in m/s (hover to see current wind gust speed)